IRIDIUM 17

Satellite information

Favourite Embed

Satellite Type and Status

PAYLOADIN ORBIT

Key statistics

Satellite IRIDIUM 17 at a glance.

Uptime

10165

Days in orbit

Revolutions

≈ 14.4

Per day

Orbit

LEO

Low Earth Orbit

Inclination

86.4

Latest

Satellite identification and parameters

Extended collection of information and parameters for IRIDIUM 17.

Object identification

Identified? True

Debris? False

Object name: IRIDIUM 17

International designator: 1997-034B

Object number (NORAD): 24870

Object ID (CCSDS): 24870

Country: UNITED STATES OF AMERICA (US)

Current information (Y/N): Y

RCS size: LARGE

Orbital parameters

Period: 100.153 minutes

Inclination: 86.395 deg

SMA: 7143.936 km

Apoapsis: 768.214 km

Periapsis: 763.387 km

RAAN: 252.1323 deg

Eccentricy: 0.0003378

Argument of periapsis: 119.0667 deg

Mean anomaly: 241.0869 deg

Mean motion: 14.37793338 rev/day

Mean motion (dot): 0.00000672 rev/day2

B* drag term: 0.00021664 1/REarth

Two-line elements (TLE)

Creation date: May 7, 2025, 3:14 a.m.

Reference frame: TEME

Reference center: EARTH

Epoch: May 6, 2025, 8:12 p.m. UTC

TLE line 0: 0 IRIDIUM 17

TLE line 1: 1 24870U 97034B 25126.84169771 .00000672 00000-0 21664-3 0 9990

TLE line 2: 2 24870 86.3950 252.1323 0003378 119.0667 241.0869 14.37793338457647

Live tracking on map

Real-time ground track for satellite IRIDIUM 17.

In-orbit conjunctions

A list of the most updated potential collisions computed for object IRIDIUM 17.

Target Orbit TCA Probability of collision Miss distance Type
DELTA 1 DEB SSO 2025-04-23 07:38:31 0.0001336378 400.0 (m) DEBRIS
CZ-6A DEB SSO 2025-02-25 19:20:20 0.01221906 41.0 (m) DEBRIS
FENGYUN 1C DEB SSO 2025-02-20 03:53:09 0.0007974429 520.0 (m) DEBRIS
NOAA 17 DEB SSO 2024-09-28 04:10:32 0.0001097544 954.0 (m) DEBRIS
FENGYUN 1C DEB SSO 2024-09-13 03:05:50 0.0001442647 589.0 (m) DEBRIS

Associated space launch

Iridium provides global mobile telecommunications services using a constellation of 66 low earth orbit satellites in a 86.4° inclined orbit. Although 77 satellites were originally envisioned for the system and spawned the name based on the 77th element in the periodic table, the system has been scaled back. Motorola's Satellite Communications Group designed and manufactured the Iridium satellites with Lockheed Martin providing the LM-700A spacecraft buses.

IRIDIUM 17 was lifted into orbit during the mission ‘Delta II | Iridium 15’, on board a Delta II space rocket.

The launch took place on July 9, 1997, 1:04 p.m. from Space Launch Complex 2W.

For more information about the launch, click the button.

Launch to space Delta II | Iridium 15
Delta II | Iridium 15

Agency: N/A

Status: Launch Successful

Launch date: July 9, 1997, 1:04 p.m. UTC

Rocket: Delta II

Launch pad: Space Launch Complex 2W

Location: Vandenberg SFB, CA, USA

...

Latest news about this satellite

There are no fresh news available about this satellite. Check back as we update our databases every day.


Newsletter sign-up

Weekly statistics, charts and insights to help you stay on top of the space industry.